SCP
0 0 0 0 0 0 0 0 0 -0 0 0 0 0 0 0 0 -0 -0 -0 -0 -0 -0 -0 -0 0 0 0 0 0 0 0
0 0 0 0 0 0 0 0 0 0 0 0 0 0 0 0 0 0 0 -0 0 -0 -1 -1 -1 -0 0 0 0 0 0 0
-0 -0 0 0 0 0 0 0 0 0 -0 0 0 0 -0 0 -0 0 0 -0 -0 -0 -0 -1 -1 -1 1 1 0 0 0 0
0 0 0 0 0 0 0 0 0 0 0 0 0 0 -0 -0 -0 0 0 0 -0 -0 -0 -0 0 1 1 1 1 1 1 0
0 0 0 0 0 0 0 0 0 0 0 0 0 0 0 0 0 -0 0 0 0 0 0 0 0 2 2 1 1 2 1 0
0 0 0 0 0 0 0 0 0 0 0 0 0 0 0 0 0 0 0 0 0 0 0 0 1 1 3 3 2 1 1 0
0 0 0 0 0 0 0 0 0 0 0 0 0 0 0 0 0 0 0 0 0 0 0 1 1 2 3 3 3 1 1 0
0 0 0 0 0 0 0 0 0 0 0 0 0 0 0 0 0 0 0 0 0 0 1 2 2 2 3 3 2 1 1 1
0 0 0 0 0 0 0 0 -0 0 0 0 0 0 0 0 0 0 0 0 0 1 1 2 3 3 3 2 1 1 1 0
0 0 0 0 0 0 0 0 0 0 0 0 0 0 0 0 0 0 0 0 0 0 1 2 4 4 2 1 1 1 0 0
0 0 0 0 0 0 0 0 0 0 0 0 0 0 0 0 0 0 0 0 0 0 0 1 2 2 1 1 1 1 0 0
0 0 0 0 0 0 0 0 0 0 0 0 0 0 0 0 0 0 0 0 0 0 1 2 2 2 1 1 0 0 0 0
0 0 0 0 0 0 0 0 0 0 0 0 0 0 0 0 0 0 0 0 0 1 2 2 1 1 1 1 1 0 0 0
0 0 0 0 0 1 1 0 0 0 0 0 0 0 0 0 0 0 0 0 0 1 2 2 1 2 1 1 0 0 0 0
0 0 0 0 0 0 0 0 0 0 0 0 0 0 0 0 0 0 0 0 0 1 5 5 4 1 0 0 0 0 0 0
0 0 0 0 0 0 0 0 0 0 0 0 0 0 0 0 1 0 0 0 2 2 1 1 0 0 0 0 0 0 0 0
0 0 0 0 0 0 0 0 0 0 0 0 0 2 3 2 0 0 0 0 1 1 0 0 0 0 0 0 0 0 0 0
0 0 0 0 0 0 0 0 0 0 0 0 0 0 -0 0 0 0 -0 0 0 0 0 0 0 0 0 0 0 0 0 0
0 0 0 0 0 0 0 0 0 0 0 0 0 0 0 1 1 1 0 0 0 0 0 0 0 0 0 0 0 0 0 0
Wind_Speed_500mb
21 23 21 18 8 20 15 2 6 8 15 14 15 33 41 51 64 77 85 93 104 103 97 94 91 88 85 80 77 66 61 56
27 10 14 31 15 6 7 13 8 9 9 12 10 23 23 25 50 74 80 90 97 105 103 101 97 94 90 87 83 74 66 61
4 12 23 3 6 8 12 10 12 6 13 13 31 34 34 34 63 66 84 95 101 106 108 106 104 103 97 95 88 80 72 63
36 23 17 17 20 15 12 11 3 10 13 10 26 25 46 51 64 70 82 95 104 107 108 111 112 112 106 103 93 85 78 67
18 14 6 17 12 13 11 9 14 13 11 3 11 8 37 46 57 57 60 83 96 99 104 113 118 117 113 108 99 87 80 72
30 17 10 12 15 15 16 11 12 13 10 7 13 20 20 56 63 57 55 63 82 90 106 114 114 119 117 113 102 89 83 78
18 36 21 29 28 18 11 18 19 16 22 21 23 26 41 63 57 50 54 59 73 84 96 100 102 110 113 112 106 94 91 81
34 19 17 16 12 23 15 11 2 13 13 21 42 48 43 65 63 54 44 40 37 58 85 93 98 103 111 115 110 98 89 85
18 15 14 9 11 10 2 9 10 14 23 22 11 14 38 48 48 46 35 21 14 22 58 79 94 102 107 109 110 102 97 84
10 9 10 13 4 26 20 10 14 13 16 38 33 52 50 56 50 37 28 22 18 16 23 41 66 94 99 103 110 98 89 72
11 10 8 6 8 12 14 9 11 6 13 24 60 42 13 39 36 31 28 25 19 23 30 37 45 78 95 98 101 95 88 69
6 12 9 4 11 14 16 12 16 16 17 15 27 14 6 29 34 27 34 23 14 24 31 36 41 52 79 92 96 101 92 68
6 7 3 11 16 3 16 13 17 36 32 29 13 15 21 31 32 19 15 17 23 30 32 33 39 50 72 89 92 82 71 63
7 9 8 43 20 14 9 30 44 40 39 41 30 30 28 20 16 7 23 35 38 42 39 36 39 52 71 82 85 73 63 61
8 6 12 34 27 36 38 47 57 53 39 34 27 18 6 6 14 26 32 23 47 54 47 45 50 60 70 75 69 68 61 46
12 9 11 16 33 41 53 59 57 56 42 36 33 27 24 17 20 31 42 39 40 61 50 50 54 57 70 66 55 56 41 28
5 4 13 18 14 41 33 29 18 19 18 22 21 32 33 36 28 25 35 41 36 56 54 54 59 60 64 45 28 14 10 3
9 13 13 1 25 31 42 32 22 18 10 26 23 4 6 10 24 21 21 25 27 43 47 50 48 45 34 23 23 12 14 12
18 41 24 28 32 29 35 28 18 20 26 33 33 34 28 20 28 25 19 15 19 30 36 42 31 16 16 21 22 17 20 25
Wind_Direction_500mb
223 225 163 244 146 188 138 84 69 256 300 330 192 195 189 183 184 193 196 193 197 203 203 203 206 209 212 214 215 214 216 217
254 198 246 193 178 94 1 166 202 281 259 229 189 182 192 192 185 192 196 197 200 204 208 208 210 211 214 217 214 212 214 220
23 213 216 89 132 65 122 140 162 226 268 218 199 187 187 199 209 192 195 199 205 210 212 213 213 214 216 217 216 213 214 218
248 249 238 169 174 148 142 230 154 166 263 261 183 184 183 201 206 211 201 202 210 216 214 215 216 215 218 219 218 215 214 217
297 330 345 184 169 145 110 93 184 142 254 134 57 115 178 181 204 211 213 203 208 212 214 217 217 219 218 220 218 216 216 219
226 214 187 201 174 162 142 142 174 203 191 150 176 166 169 173 168 177 184 199 207 215 218 221 220 223 219 220 219 215 217 221
215 223 215 211 194 160 151 183 171 216 180 203 186 177 176 172 174 179 185 190 204 214 218 222 219 222 222 221 221 217 217 221
226 235 221 172 205 170 152 138 10 159 211 198 193 168 172 173 178 182 195 204 217 222 221 222 223 225 225 222 222 215 217 222
215 157 121 89 132 231 307 54 182 176 221 154 156 181 168 164 165 155 149 152 176 231 237 229 227 228 226 224 223 218 218 217
174 110 138 232 207 107 92 4 332 252 181 176 175 179 171 160 150 156 157 182 194 231 233 237 240 233 230 228 225 217 216 216
134 142 200 36 56 150 133 337 320 183 92 131 141 134 156 172 169 160 170 172 204 237 253 252 242 234 230 227 222 218 216 223
79 120 156 231 294 24 99 19 325 73 95 111 102 97 253 191 188 174 168 174 223 251 263 256 246 238 231 227 219 216 219 230
72 120 314 285 301 193 74 220 319 83 80 81 94 127 118 130 141 163 206 240 240 242 255 260 241 236 228 221 219 226 229 221
356 56 33 348 312 86 192 77 70 70 93 86 69 50 46 44 22 330 225 228 232 235 234 248 242 235 221 209 205 204 198 201
92 145 271 351 65 83 93 77 70 68 66 74 72 66 57 348 328 314 304 279 241 229 228 229 230 223 208 193 195 197 196 196
119 190 292 27 73 65 68 71 70 62 54 54 41 16 12 344 307 306 296 285 277 227 233 227 217 208 202 197 200 196 197 234
251 80 74 61 72 94 77 55 59 69 68 66 39 24 15 340 307 290 300 296 270 224 227 209 194 193 192 197 180 204 231 326
203 149 117 13 100 105 84 81 63 54 26 36 50 351 289 354 298 288 311 301 228 185 177 166 168 170 157 134 117 133 141 178
137 154 127 91 76 76 77 77 75 36 22 9 20 30 29 268 246 269 269 275 200 176 154 142 132 138 183 184 187 254 259 277
Wind_Speed_850mb
21 23 21 18 8 20 15 2 6 8 15 14 15 33 41 51 64 77 85 93 104 103 97 94 91 88 85 80 77 66 61 56
27 10 14 31 15 6 7 13 8 9 9 12 10 23 23 25 50 74 80 90 97 105 103 101 97 94 90 87 83 74 66 61
4 12 23 3 6 8 12 10 12 6 13 13 31 34 34 34 63 66 84 95 101 106 108 106 104 103 97 95 88 80 72 63
36 23 17 17 20 15 12 11 3 10 13 10 26 25 46 51 64 70 82 95 104 107 108 111 112 112 106 103 93 85 78 67
18 14 6 17 12 13 11 9 14 13 11 3 11 8 37 46 57 57 60 83 96 99 104 113 118 117 113 108 99 87 80 72
30 17 10 12 15 15 16 11 12 13 10 7 13 20 20 56 63 57 55 63 82 90 106 114 114 119 117 113 102 89 83 78
18 36 21 29 28 18 11 18 19 16 22 21 23 26 41 63 57 50 54 59 73 84 96 100 102 110 113 112 106 94 91 81
34 19 17 16 12 23 15 11 2 13 13 21 42 48 43 65 63 54 44 40 37 58 85 93 98 103 111 115 110 98 89 85
18 15 14 9 11 10 2 9 10 14 23 22 11 14 38 48 48 46 35 21 14 22 58 79 94 102 107 109 110 102 97 84
10 9 10 13 4 26 20 10 14 13 16 38 33 52 50 56 50 37 28 22 18 16 23 41 66 94 99 103 110 98 89 72
11 10 8 6 8 12 14 9 11 6 13 24 60 42 13 39 36 31 28 25 19 23 30 37 45 78 95 98 101 95 88 69
6 12 9 4 11 14 16 12 16 16 17 15 27 14 6 29 34 27 34 23 14 24 31 36 41 52 79 92 96 101 92 68
6 7 3 11 16 3 16 13 17 36 32 29 13 15 21 31 32 19 15 17 23 30 32 33 39 50 72 89 92 82 71 63
7 9 8 43 20 14 9 30 44 40 39 41 30 30 28 20 16 7 23 35 38 42 39 36 39 52 71 82 85 73 63 61
8 6 12 34 27 36 38 47 57 53 39 34 27 18 6 6 14 26 32 23 47 54 47 45 50 60 70 75 69 68 61 46
12 9 11 16 33 41 53 59 57 56 42 36 33 27 24 17 20 31 42 39 40 61 50 50 54 57 70 66 55 56 41 28
5 4 13 18 14 41 33 29 18 19 18 22 21 32 33 36 28 25 35 41 36 56 54 54 59 60 64 45 28 14 10 3
9 13 13 1 25 31 42 32 22 18 10 26 23 4 6 10 24 21 21 25 27 43 47 50 48 45 34 23 23 12 14 12
18 41 24 28 32 29 35 28 18 20 26 33 33 34 28 20 28 25 19 15 19 30 36 42 31 16 16 21 22 17 20 25
Wind_Direction_850mb
223 225 163 244 146 188 138 84 69 256 300 330 192 195 189 183 184 193 196 193 197 203 203 203 206 209 212 214 215 214 216 217
254 198 246 193 178 94 1 166 202 281 259 229 189 182 192 192 185 192 196 197 200 204 208 208 210 211 214 217 214 212 214 220
23 213 216 89 132 65 122 140 162 226 268 218 199 187 187 199 209 192 195 199 205 210 212 213 213 214 216 217 216 213 214 218
248 249 238 169 174 148 142 230 154 166 263 261 183 184 183 201 206 211 201 202 210 216 214 215 216 215 218 219 218 215 214 217
297 330 345 184 169 145 110 93 184 142 254 134 57 115 178 181 204 211 213 203 208 212 214 217 217 219 218 220 218 216 216 219
226 214 187 201 174 162 142 142 174 203 191 150 176 166 169 173 168 177 184 199 207 215 218 221 220 223 219 220 219 215 217 221
215 223 215 211 194 160 151 183 171 216 180 203 186 177 176 172 174 179 185 190 204 214 218 222 219 222 222 221 221 217 217 221
226 235 221 172 205 170 152 138 10 159 211 198 193 168 172 173 178 182 195 204 217 222 221 222 223 225 225 222 222 215 217 222
215 157 121 89 132 231 307 54 182 176 221 154 156 181 168 164 165 155 149 152 176 231 237 229 227 228 226 224 223 218 218 217
174 110 138 232 207 107 92 4 332 252 181 176 175 179 171 160 150 156 157 182 194 231 233 237 240 233 230 228 225 217 216 216
134 142 200 36 56 150 133 337 320 183 92 131 141 134 156 172 169 160 170 172 204 237 253 252 242 234 230 227 222 218 216 223
79 120 156 231 294 24 99 19 325 73 95 111 102 97 253 191 188 174 168 174 223 251 263 256 246 238 231 227 219 216 219 230
72 120 314 285 301 193 74 220 319 83 80 81 94 127 118 130 141 163 206 240 240 242 255 260 241 236 228 221 219 226 229 221
356 56 33 348 312 86 192 77 70 70 93 86 69 50 46 44 22 330 225 228 232 235 234 248 242 235 221 209 205 204 198 201
92 145 271 351 65 83 93 77 70 68 66 74 72 66 57 348 328 314 304 279 241 229 228 229 230 223 208 193 195 197 196 196
119 190 292 27 73 65 68 71 70 62 54 54 41 16 12 344 307 306 296 285 277 227 233 227 217 208 202 197 200 196 197 234
251 80 74 61 72 94 77 55 59 69 68 66 39 24 15 340 307 290 300 296 270 224 227 209 194 193 192 197 180 204 231 326
203 149 117 13 100 105 84 81 63 54 26 36 50 351 289 354 298 288 311 301 228 185 177 166 168 170 157 134 117 133 141 178
137 154 127 91 76 76 77 77 75 36 22 9 20 30 29 268 246 269 269 275 200 176 154 142 132 138 183 184 187 254 259 277